TimeEEST,TemperatureF,Dew PointF,Humidity,Sea Level PressureIn,VisibilityMPH,Wind Direction,Wind SpeedMPH,Gust SpeedMPH,PrecipitationIn,Events,Conditions,WindDirDegrees,DateUTC
12:20 AM,60.8,39.2,45,29.74,-9999.0,NNE,6.9,-,N/A,,Clear,30,2013-09-16 21:20:00
12:50 AM,60.8,39.2,45,29.71,-9999.0,NNE,8.1,-,N/A,,Clear,30,2013-09-16 21:50:00
1:20 AM,60.8,41.0,48,29.71,-9999.0,NNE,8.1,-,N/A,,Clear,30,2013-09-16 22:20:00
1:50 AM,59.0,39.2,48,29.71,-9999.0,NNE,6.9,-,N/A,,Clear,30,2013-09-16 22:50:00
2:20 AM,59.0,39.2,48,29.71,-9999.0,NNE,4.6,-,N/A,,Clear,20,2013-09-16 23:20:00
2:50 AM,59.0,42.8,55,29.74,-9999.0,NE,3.5,-,N/A,,Clear,40,2013-09-16 23:50:00
3:20 AM,59.0,42.8,55,29.74,-9999.0,NNW,5.8,-,N/A,,Clear,330,2013-09-17 00:20:00
3:50 AM,57.2,41.0,55,29.71,-9999.0,NE,3.5,-,N/A,,Clear,40,2013-09-17 00:50:00
4:20 AM,57.2,39.2,51,29.71,-9999.0,North,3.5,-,N/A,,Clear,10,2013-09-17 01:20:00
4:50 AM,55.4,39.2,54,29.71,-9999.0,NNE,4.6,-,N/A,,Clear,30,2013-09-17 01:50:00
5:20 AM,57.2,39.2,51,29.71,-9999.0,North,4.6,-,N/A,,Clear,360,2013-09-17 02:20:00
6:20 AM,55.4,42.8,63,29.74,-9999.0,North,3.5,-,N/A,,Clear,350,2013-09-17 03:20:00
6:50 AM,57.2,42.8,59,29.74,-9999.0,Variable,2.3,-,N/A,,Clear,0,2013-09-17 03:50:00
7:20 AM,59.0,42.8,55,29.74,-9999.0,Variable,2.3,-,N/A,,Clear,0,2013-09-17 04:20:00
7:50 AM,64.4,41.0,42,29.74,-9999.0,Variable,2.3,-,N/A,,Clear,0,2013-09-17 04:50:00
8:20 AM,68.0,39.2,35,29.74,-9999.0,Variable,1.2,-,N/A,,Clear,0,2013-09-17 05:20:00
8:50 AM,71.6,39.2,31,29.74,-9999.0,Variable,2.3,-,N/A,,Clear,0,2013-09-17 05:50:00
9:20 AM,77.0,41.0,28,29.74,-9999.0,Variable,2.3,-,N/A,,Clear,0,2013-09-17 06:20:00
9:50 AM,80.6,37.4,21,29.74,-9999.0,Variable,2.3,-,N/A,,Clear,0,2013-09-17 06:50:00
10:20 AM,86.0,37.4,18,29.74,-9999.0,Variable,2.3,-,N/A,,Clear,0,2013-09-17 07:20:00
10:50 AM,86.0,37.4,18,29.74,-9999.0,West,4.6,-,N/A,,Clear,270,2013-09-17 07:50:00
11:20 AM,87.8,37.4,17,29.74,-9999.0,WNW,5.8,-,N/A,,Clear,290,2013-09-17 08:20:00
11:50 AM,87.8,35.6,16,29.71,-9999.0,West,6.9,-,N/A,,Clear,260,2013-09-17 08:50:00
12:20 PM,91.4,30.2,11,29.71,-9999.0,SSW,13.8,-,N/A,,Clear,210,2013-09-17 09:20:00
12:50 PM,91.4,28.4,10,29.71,-9999.0,SSW,15.0,-,N/A,,Clear,210,2013-09-17 09:50:00
1:20 PM,91.4,30.2,11,29.71,-9999.0,SSW,15.0,-,N/A,,Clear,200,2013-09-17 10:20:00
1:50 PM,91.4,24.8,9,29.71,-9999.0,South,13.8,-,N/A,,Clear,190,2013-09-17 10:50:00
2:20 PM,89.6,21.2,8,29.71,-9999.0,SW,18.4,-,N/A,,Clear,220,2013-09-17 11:20:00
2:50 PM,89.6,26.6,10,29.68,-9999.0,SW,16.1,-,N/A,,Clear,220,2013-09-17 11:50:00
3:20 PM,89.6,26.6,10,29.68,-9999.0,SW,16.1,-,N/A,,Clear,220,2013-09-17 12:20:00
3:50 PM,89.6,26.6,10,29.68,-9999.0,SW,16.1,-,N/A,,Clear,230,2013-09-17 12:50:00
4:20 PM,89.6,26.6,10,29.68,-9999.0,SW,12.7,-,N/A,,Clear,220,2013-09-17 13:20:00
4:50 PM,87.8,26.6,11,29.68,-9999.0,SW,12.7,-,N/A,,Clear,220,2013-09-17 13:50:00
5:20 PM,86.0,28.4,12,29.68,-9999.0,SW,12.7,-,N/A,,Clear,230,2013-09-17 14:20:00
5:50 PM,84.2,28.4,13,29.68,-9999.0,SW,11.5,-,N/A,,Clear,220,2013-09-17 14:50:00
6:20 PM,80.6,24.8,13,29.68,-9999.0,SW,12.7,-,N/A,,Clear,220,2013-09-17 15:20:00
6:50 PM,80.6,33.8,18,29.71,-9999.0,SW,12.7,-,N/A,,Clear,220,2013-09-17 15:50:00
7:20 PM,78.8,39.2,24,29.71,-9999.0,South,11.5,-,N/A,,Clear,190,2013-09-17 16:20:00
7:50 PM,78.8,42.8,28,29.71,-9999.0,South,10.4,-,N/A,,Clear,180,2013-09-17 16:50:00
8:20 PM,77.0,42.8,29,29.74,-9999.0,SW,6.9,-,N/A,,Clear,220,2013-09-17 17:20:00
8:50 PM,77.0,44.6,32,29.74,-9999.0,WSW,2.3,-,N/A,,Clear,250,2013-09-17 17:50:00
9:20 PM,73.4,44.6,36,29.74,-9999.0,SW,3.5,-,N/A,,Clear,230,2013-09-17 18:20:00
9:50 PM,71.6,42.8,35,29.74,-9999.0,Calm,Calm,-,N/A,,Clear,0,2013-09-17 18:50:00
10:20 PM,69.8,42.8,38,29.74,-9999.0,Variable,1.2,-,N/A,,Clear,0,2013-09-17 19:20:00
10:50 PM,69.8,42.8,38,29.74,-9999.0,Variable,2.3,-,N/A,,Clear,0,2013-09-17 19:50:00
11:20 PM,69.8,44.6,40,29.74,-9999.0,ESE,3.5,-,N/A,,Clear,120,2013-09-17 20:20:00
11:50 PM,66.2,46.4,49,29.74,-9999.0,NNE,3.5,-,N/A,,Clear,20,2013-09-17 20:50:00